Index of /20260509/WXO-DD/model_rdps/10km/00/080
Name Last modified Size Description
Parent Directory -
20260509T00Z_MSC_RDPS_AbsoluteVorticity_IsbL-0250_RLatLon0.09_PT080H.grib2 2026-05-09 03:04 598K
20260509T00Z_MSC_RDPS_AbsoluteVorticity_IsbL-0500_RLatLon0.09_PT080H.grib2 2026-05-09 03:04 570K
20260509T00Z_MSC_RDPS_AbsoluteVorticity_IsbL-0700_RLatLon0.09_PT080H.grib2 2026-05-09 03:04 766K
20260509T00Z_MSC_RDPS_AbsoluteVorticity_IsbL-0850_RLatLon0.09_PT080H.grib2 2026-05-09 03:04 791K
20260509T00Z_MSC_RDPS_AirTemp_AGL-120m_RLatLon0.09_PT080H.grib2 2026-05-09 03:04 378K
20260509T00Z_MSC_RDPS_AirTemp_AGL-2m_RLatLon0.09_PT080H.grib2 2026-05-09 03:04 631K
20260509T00Z_MSC_RDPS_AirTemp_AGL-40m_RLatLon0.09_PT080H.grib2 2026-05-09 03:04 394K
20260509T00Z_MSC_RDPS_AirTemp_AGL-80m_RLatLon0.09_PT080H.grib2 2026-05-09 03:04 384K
20260509T00Z_MSC_RDPS_AirTemp_IsbL-0001_RLatLon0.09_PT080H.grib2 2026-05-09 03:04 229K
20260509T00Z_MSC_RDPS_AirTemp_IsbL-0005_RLatLon0.09_PT080H.grib2 2026-05-09 03:04 289K
20260509T00Z_MSC_RDPS_AirTemp_IsbL-0010_RLatLon0.09_PT080H.grib2 2026-05-09 03:04 389K
20260509T00Z_MSC_RDPS_AirTemp_IsbL-0020_RLatLon0.09_PT080H.grib2 2026-05-09 03:04 415K
20260509T00Z_MSC_RDPS_AirTemp_IsbL-0030_RLatLon0.09_PT080H.grib2 2026-05-09 03:04 344K
20260509T00Z_MSC_RDPS_AirTemp_IsbL-0050_RLatLon0.09_PT080H.grib2 2026-05-09 03:04 312K
20260509T00Z_MSC_RDPS_AirTemp_IsbL-0100_RLatLon0.09_PT080H.grib2 2026-05-09 03:04 422K
20260509T00Z_MSC_RDPS_AirTemp_IsbL-0150_RLatLon0.09_PT080H.grib2 2026-05-09 03:04 403K
20260509T00Z_MSC_RDPS_AirTemp_IsbL-0175_RLatLon0.09_PT080H.grib2 2026-05-09 03:04 397K
20260509T00Z_MSC_RDPS_AirTemp_IsbL-0200_RLatLon0.09_PT080H.grib2 2026-05-09 03:04 402K
20260509T00Z_MSC_RDPS_AirTemp_IsbL-0225_RLatLon0.09_PT080H.grib2 2026-05-09 03:04 408K
20260509T00Z_MSC_RDPS_AirTemp_IsbL-0250_RLatLon0.09_PT080H.grib2 2026-05-09 03:04 423K
20260509T00Z_MSC_RDPS_AirTemp_IsbL-0275_RLatLon0.09_PT080H.grib2 2026-05-09 03:04 402K
20260509T00Z_MSC_RDPS_AirTemp_IsbL-0300_RLatLon0.09_PT080H.grib2 2026-05-09 03:04 406K
20260509T00Z_MSC_RDPS_AirTemp_IsbL-0350_RLatLon0.09_PT080H.grib2 2026-05-09 03:04 418K
20260509T00Z_MSC_RDPS_AirTemp_IsbL-0400_RLatLon0.09_PT080H.grib2 2026-05-09 03:04 421K
20260509T00Z_MSC_RDPS_AirTemp_IsbL-0450_RLatLon0.09_PT080H.grib2 2026-05-09 03:04 430K
20260509T00Z_MSC_RDPS_AirTemp_IsbL-0500_RLatLon0.09_PT080H.grib2 2026-05-09 03:04 442K
20260509T00Z_MSC_RDPS_AirTemp_IsbL-0550_RLatLon0.09_PT080H.grib2 2026-05-09 03:04 461K
20260509T00Z_MSC_RDPS_AirTemp_IsbL-0600_RLatLon0.09_PT080H.grib2 2026-05-09 03:04 481K
20260509T00Z_MSC_RDPS_AirTemp_IsbL-0650_RLatLon0.09_PT080H.grib2 2026-05-09 03:04 497K
20260509T00Z_MSC_RDPS_AirTemp_IsbL-0700_RLatLon0.09_PT080H.grib2 2026-05-09 03:04 524K
20260509T00Z_MSC_RDPS_AirTemp_IsbL-0750_RLatLon0.09_PT080H.grib2 2026-05-09 03:04 568K
20260509T00Z_MSC_RDPS_AirTemp_IsbL-0800_RLatLon0.09_PT080H.grib2 2026-05-09 03:04 584K
20260509T00Z_MSC_RDPS_AirTemp_IsbL-0850_RLatLon0.09_PT080H.grib2 2026-05-09 03:04 633K
20260509T00Z_MSC_RDPS_AirTemp_IsbL-0875_RLatLon0.09_PT080H.grib2 2026-05-09 03:04 649K
20260509T00Z_MSC_RDPS_AirTemp_IsbL-0900_RLatLon0.09_PT080H.grib2 2026-05-09 03:04 661K
20260509T00Z_MSC_RDPS_AirTemp_IsbL-0925_RLatLon0.09_PT080H.grib2 2026-05-09 03:04 527K
20260509T00Z_MSC_RDPS_AirTemp_IsbL-0950_RLatLon0.09_PT080H.grib2 2026-05-09 03:04 533K
20260509T00Z_MSC_RDPS_AirTemp_IsbL-0970_RLatLon0.09_PT080H.grib2 2026-05-09 03:04 531K
20260509T00Z_MSC_RDPS_AirTemp_IsbL-0985_RLatLon0.09_PT080H.grib2 2026-05-09 03:04 520K
20260509T00Z_MSC_RDPS_AirTemp_IsbL-1000_RLatLon0.09_PT080H.grib2 2026-05-09 03:04 500K
20260509T00Z_MSC_RDPS_AirTemp_IsbL-1015_RLatLon0.09_PT080H.grib2 2026-05-09 03:04 502K
20260509T00Z_MSC_RDPS_Albedo_Sfc_RLatLon0.09_PT080H.grib2 2026-05-09 03:04 159K
20260509T00Z_MSC_RDPS_CAPE_Sfc_RLatLon0.09_PT080H.grib2 2026-05-09 03:04 1.6M
20260509T00Z_MSC_RDPS_CIN_Sfc_RLatLon0.09_PT080H.grib2 2026-05-09 03:04 1.2M
20260509T00Z_MSC_RDPS_CloudWater_EAtm_RLatLon0.09_PT080H.grib2 2026-05-09 03:04 231K
20260509T00Z_MSC_RDPS_ConvectivePrecip-Accum_Sfc_RLatLon0.09_PT080H.grib2 2026-05-09 03:04 1.4M
20260509T00Z_MSC_RDPS_DewPointDepression_AGL-2m_RLatLon0.09_PT080H.grib2 2026-05-09 03:04 399K
20260509T00Z_MSC_RDPS_DewPointDepression_IsbL-0001_RLatLon0.09_PT080H.grib2 2026-05-09 03:04 193
20260509T00Z_MSC_RDPS_DewPointDepression_IsbL-0005_RLatLon0.09_PT080H.grib2 2026-05-09 03:04 193
20260509T00Z_MSC_RDPS_DewPointDepression_IsbL-0010_RLatLon0.09_PT080H.grib2 2026-05-09 03:04 193
20260509T00Z_MSC_RDPS_DewPointDepression_IsbL-0020_RLatLon0.09_PT080H.grib2 2026-05-09 03:04 193
20260509T00Z_MSC_RDPS_DewPointDepression_IsbL-0030_RLatLon0.09_PT080H.grib2 2026-05-09 03:04 193
20260509T00Z_MSC_RDPS_DewPointDepression_IsbL-0050_RLatLon0.09_PT080H.grib2 2026-05-09 03:04 107K
20260509T00Z_MSC_RDPS_DewPointDepression_IsbL-0100_RLatLon0.09_PT080H.grib2 2026-05-09 03:04 109K
20260509T00Z_MSC_RDPS_DewPointDepression_IsbL-0150_RLatLon0.09_PT080H.grib2 2026-05-09 03:04 145K
20260509T00Z_MSC_RDPS_DewPointDepression_IsbL-0175_RLatLon0.09_PT080H.grib2 2026-05-09 03:04 170K
20260509T00Z_MSC_RDPS_DewPointDepression_IsbL-0200_RLatLon0.09_PT080H.grib2 2026-05-09 03:04 220K
20260509T00Z_MSC_RDPS_DewPointDepression_IsbL-0225_RLatLon0.09_PT080H.grib2 2026-05-09 03:04 259K
20260509T00Z_MSC_RDPS_DewPointDepression_IsbL-0250_RLatLon0.09_PT080H.grib2 2026-05-09 03:04 299K
20260509T00Z_MSC_RDPS_DewPointDepression_IsbL-0275_RLatLon0.09_PT080H.grib2 2026-05-09 03:04 308K
20260509T00Z_MSC_RDPS_DewPointDepression_IsbL-0300_RLatLon0.09_PT080H.grib2 2026-05-09 03:04 327K
20260509T00Z_MSC_RDPS_DewPointDepression_IsbL-0350_RLatLon0.09_PT080H.grib2 2026-05-09 03:04 335K
20260509T00Z_MSC_RDPS_DewPointDepression_IsbL-0400_RLatLon0.09_PT080H.grib2 2026-05-09 03:04 351K
20260509T00Z_MSC_RDPS_DewPointDepression_IsbL-0450_RLatLon0.09_PT080H.grib2 2026-05-09 03:04 360K
20260509T00Z_MSC_RDPS_DewPointDepression_IsbL-0500_RLatLon0.09_PT080H.grib2 2026-05-09 03:04 362K
20260509T00Z_MSC_RDPS_DewPointDepression_IsbL-0550_RLatLon0.09_PT080H.grib2 2026-05-09 03:04 372K
20260509T00Z_MSC_RDPS_DewPointDepression_IsbL-0600_RLatLon0.09_PT080H.grib2 2026-05-09 03:04 385K
20260509T00Z_MSC_RDPS_DewPointDepression_IsbL-0650_RLatLon0.09_PT080H.grib2 2026-05-09 03:04 391K
20260509T00Z_MSC_RDPS_DewPointDepression_IsbL-0700_RLatLon0.09_PT080H.grib2 2026-05-09 03:04 404K
20260509T00Z_MSC_RDPS_DewPointDepression_IsbL-0750_RLatLon0.09_PT080H.grib2 2026-05-09 03:04 426K
20260509T00Z_MSC_RDPS_DewPointDepression_IsbL-0800_RLatLon0.09_PT080H.grib2 2026-05-09 03:04 460K
20260509T00Z_MSC_RDPS_DewPointDepression_IsbL-0850_RLatLon0.09_PT080H.grib2 2026-05-09 03:04 473K
20260509T00Z_MSC_RDPS_DewPointDepression_IsbL-0875_RLatLon0.09_PT080H.grib2 2026-05-09 03:04 467K
20260509T00Z_MSC_RDPS_DewPointDepression_IsbL-0900_RLatLon0.09_PT080H.grib2 2026-05-09 03:04 457K
20260509T00Z_MSC_RDPS_DewPointDepression_IsbL-0925_RLatLon0.09_PT080H.grib2 2026-05-09 03:04 445K
20260509T00Z_MSC_RDPS_DewPointDepression_IsbL-0950_RLatLon0.09_PT080H.grib2 2026-05-09 03:04 441K
20260509T00Z_MSC_RDPS_DewPointDepression_IsbL-0970_RLatLon0.09_PT080H.grib2 2026-05-09 03:04 437K
20260509T00Z_MSC_RDPS_DewPointDepression_IsbL-0985_RLatLon0.09_PT080H.grib2 2026-05-09 03:04 432K
20260509T00Z_MSC_RDPS_DewPointDepression_IsbL-1000_RLatLon0.09_PT080H.grib2 2026-05-09 03:04 424K
20260509T00Z_MSC_RDPS_DewPointDepression_IsbL-1015_RLatLon0.09_PT080H.grib2 2026-05-09 03:04 411K
20260509T00Z_MSC_RDPS_DewPoint_AGL-2m_RLatLon0.09_PT080H.grib2 2026-05-09 03:04 390K
20260509T00Z_MSC_RDPS_DownwardLongwaveRadiationFlux-Accum_Sfc_RLatLon0.09_PT080H.grib2 2026-05-09 03:04 437K
20260509T00Z_MSC_RDPS_DownwardShortwaveRadiationFlux-Accum_NTAtm_RLatLon0.09_PT080H.grib2 2026-05-09 03:04 160K
20260509T00Z_MSC_RDPS_DownwardShortwaveRadiationFlux-Accum_Sfc_RLatLon0.09_PT080H.grib2 2026-05-09 03:04 641K
20260509T00Z_MSC_RDPS_FreezingRain-Accum1h_Sfc_RLatLon0.09_PT080H.grib2 2026-05-09 03:04 37K
20260509T00Z_MSC_RDPS_FreezingRain-Accum_Sfc_RLatLon0.09_PT080H.grib2 2026-05-09 03:04 211K
20260509T00Z_MSC_RDPS_GeopotentialHeight_IsbL-0001_RLatLon0.09_PT080H.grib2 2026-05-09 03:04 273K
20260509T00Z_MSC_RDPS_GeopotentialHeight_IsbL-0005_RLatLon0.09_PT080H.grib2 2026-05-09 03:04 306K
20260509T00Z_MSC_RDPS_GeopotentialHeight_IsbL-0010_RLatLon0.09_PT080H.grib2 2026-05-09 03:04 307K
20260509T00Z_MSC_RDPS_GeopotentialHeight_IsbL-0020_RLatLon0.09_PT080H.grib2 2026-05-09 03:04 308K
20260509T00Z_MSC_RDPS_GeopotentialHeight_IsbL-0030_RLatLon0.09_PT080H.grib2 2026-05-09 03:04 310K
20260509T00Z_MSC_RDPS_GeopotentialHeight_IsbL-0050_RLatLon0.09_PT080H.grib2 2026-05-09 03:04 310K
20260509T00Z_MSC_RDPS_GeopotentialHeight_IsbL-0100_RLatLon0.09_PT080H.grib2 2026-05-09 03:04 283K
20260509T00Z_MSC_RDPS_GeopotentialHeight_IsbL-0150_RLatLon0.09_PT080H.grib2 2026-05-09 03:04 225K
20260509T00Z_MSC_RDPS_GeopotentialHeight_IsbL-0175_RLatLon0.09_PT080H.grib2 2026-05-09 03:04 227K
20260509T00Z_MSC_RDPS_GeopotentialHeight_IsbL-0200_RLatLon0.09_PT080H.grib2 2026-05-09 03:04 230K
20260509T00Z_MSC_RDPS_GeopotentialHeight_IsbL-0225_RLatLon0.09_PT080H.grib2 2026-05-09 03:04 231K
20260509T00Z_MSC_RDPS_GeopotentialHeight_IsbL-0250_RLatLon0.09_PT080H.grib2 2026-05-09 03:04 233K
20260509T00Z_MSC_RDPS_GeopotentialHeight_IsbL-0275_RLatLon0.09_PT080H.grib2 2026-05-09 03:04 232K
20260509T00Z_MSC_RDPS_GeopotentialHeight_IsbL-0300_RLatLon0.09_PT080H.grib2 2026-05-09 03:04 232K
20260509T00Z_MSC_RDPS_GeopotentialHeight_IsbL-0350_RLatLon0.09_PT080H.grib2 2026-05-09 03:04 227K
20260509T00Z_MSC_RDPS_GeopotentialHeight_IsbL-0400_RLatLon0.09_PT080H.grib2 2026-05-09 03:04 297K
20260509T00Z_MSC_RDPS_GeopotentialHeight_IsbL-0450_RLatLon0.09_PT080H.grib2 2026-05-09 03:04 292K
20260509T00Z_MSC_RDPS_GeopotentialHeight_IsbL-0500_RLatLon0.09_PT080H.grib2 2026-05-09 03:04 287K
20260509T00Z_MSC_RDPS_GeopotentialHeight_IsbL-0550_RLatLon0.09_PT080H.grib2 2026-05-09 03:04 283K
20260509T00Z_MSC_RDPS_GeopotentialHeight_IsbL-0600_RLatLon0.09_PT080H.grib2 2026-05-09 03:04 253K
20260509T00Z_MSC_RDPS_GeopotentialHeight_IsbL-0650_RLatLon0.09_PT080H.grib2 2026-05-09 03:04 251K
20260509T00Z_MSC_RDPS_GeopotentialHeight_IsbL-0700_RLatLon0.09_PT080H.grib2 2026-05-09 03:04 332K
20260509T00Z_MSC_RDPS_GeopotentialHeight_IsbL-0750_RLatLon0.09_PT080H.grib2 2026-05-09 03:04 336K
20260509T00Z_MSC_RDPS_GeopotentialHeight_IsbL-0800_RLatLon0.09_PT080H.grib2 2026-05-09 03:04 346K
20260509T00Z_MSC_RDPS_GeopotentialHeight_IsbL-0850_RLatLon0.09_PT080H.grib2 2026-05-09 03:04 355K
20260509T00Z_MSC_RDPS_GeopotentialHeight_IsbL-0875_RLatLon0.09_PT080H.grib2 2026-05-09 03:04 355K
20260509T00Z_MSC_RDPS_GeopotentialHeight_IsbL-0900_RLatLon0.09_PT080H.grib2 2026-05-09 03:04 359K
20260509T00Z_MSC_RDPS_GeopotentialHeight_IsbL-0925_RLatLon0.09_PT080H.grib2 2026-05-09 03:04 362K
20260509T00Z_MSC_RDPS_GeopotentialHeight_IsbL-0950_RLatLon0.09_PT080H.grib2 2026-05-09 03:04 365K
20260509T00Z_MSC_RDPS_GeopotentialHeight_IsbL-0970_RLatLon0.09_PT080H.grib2 2026-05-09 03:04 368K
20260509T00Z_MSC_RDPS_GeopotentialHeight_IsbL-0985_RLatLon0.09_PT080H.grib2 2026-05-09 03:04 378K
20260509T00Z_MSC_RDPS_GeopotentialHeight_IsbL-1000_RLatLon0.09_PT080H.grib2 2026-05-09 03:04 390K
20260509T00Z_MSC_RDPS_GeopotentialHeight_IsbL-1015_RLatLon0.09_PT080H.grib2 2026-05-09 03:04 407K
20260509T00Z_MSC_RDPS_HighLowPressure_MSL_RLatLon0.09_PT080H.json 2026-05-09 02:56 22K
20260509T00Z_MSC_RDPS_Humidex_Sfc_RLatLon0.09_PT080H.grib2 2026-05-09 03:04 2.4M
20260509T00Z_MSC_RDPS_IcePellets-Accum1h_Sfc_RLatLon0.09_PT080H.grib2 2026-05-09 03:04 18K
20260509T00Z_MSC_RDPS_IcePellets-Accum_Sfc_RLatLon0.09_PT080H.grib2 2026-05-09 03:04 57K
20260509T00Z_MSC_RDPS_KIndex_Sfc_RLatLon0.09_PT080H.grib2 2026-05-09 03:04 2.5M
20260509T00Z_MSC_RDPS_LatentHeatNetFlux_Sfc_RLatLon0.09_PT080H.grib2 2026-05-09 03:04 319K
20260509T00Z_MSC_RDPS_LiftedIndex-MU-VT_IsbL-0500_RLatLon0.09_PT080H.grib2 2026-05-09 03:04 2.4M
20260509T00Z_MSC_RDPS_NetLongwaveRadiationFlux-Accum_Sfc_RLatLon0.09_PT080H.grib2 2026-05-09 03:04 488K
20260509T00Z_MSC_RDPS_NetShortwaveRadiationFlux-Accum_Sfc_RLatLon0.09_PT080H.grib2 2026-05-09 03:04 642K
20260509T00Z_MSC_RDPS_PlanetaryBoundaryLayerHeight_Sfc_RLatLon0.09_PT080H.grib2 2026-05-09 03:04 1.1M
20260509T00Z_MSC_RDPS_Precip-Accum1h_Sfc_RLatLon0.09_PT080H.grib2 2026-05-09 03:04 1.3M
20260509T00Z_MSC_RDPS_Precip-Accum_Sfc_RLatLon0.09_PT080H.grib2 2026-05-09 03:04 2.1M
20260509T00Z_MSC_RDPS_PrecipRate_Sfc_RLatLon0.09_PT080H.grib2 2026-05-09 03:04 131K
20260509T00Z_MSC_RDPS_PrecipType-Instant_Sfc_RLatLon0.09_PT080H.grib2 2026-05-09 03:04 659K
20260509T00Z_MSC_RDPS_Pressure-Trend3h_Sfc_RLatLon0.09_PT080H.grib2 2026-05-09 03:04 1.2M
20260509T00Z_MSC_RDPS_Pressure_MSL_RLatLon0.09_PT080H.grib2 2026-05-09 03:04 321K
20260509T00Z_MSC_RDPS_Pressure_PVU-1.5_RLatLon0.09_PT080H.grib2 2026-05-09 03:04 2.5M
20260509T00Z_MSC_RDPS_Pressure_PVU-1_RLatLon0.09_PT080H.grib2 2026-05-09 03:04 2.4M
20260509T00Z_MSC_RDPS_Pressure_PVU-2_RLatLon0.09_PT080H.grib2 2026-05-09 03:04 2.4M
20260509T00Z_MSC_RDPS_Pressure_Sfc_RLatLon0.09_PT080H.grib2 2026-05-09 03:04 499K
20260509T00Z_MSC_RDPS_RadiativeTemp_Sfc_RLatLon0.09_PT080H.grib2 2026-05-09 03:04 394K
20260509T00Z_MSC_RDPS_Rain-Accum1h_Sfc_RLatLon0.09_PT080H.grib2 2026-05-09 03:04 625K
20260509T00Z_MSC_RDPS_Rain-Accum_Sfc_RLatLon0.09_PT080H.grib2 2026-05-09 03:04 1.8M
20260509T00Z_MSC_RDPS_RelativeHumidity_AGL-2m_RLatLon0.09_PT080H.grib2 2026-05-09 03:04 1.0M
20260509T00Z_MSC_RDPS_RelativeHumidity_IsbL-0010_RLatLon0.09_PT080H.grib2 2026-05-09 03:04 554K
20260509T00Z_MSC_RDPS_RelativeHumidity_IsbL-0020_RLatLon0.09_PT080H.grib2 2026-05-09 03:04 518K
20260509T00Z_MSC_RDPS_RelativeHumidity_IsbL-0030_RLatLon0.09_PT080H.grib2 2026-05-09 03:04 619K
20260509T00Z_MSC_RDPS_RelativeHumidity_IsbL-0050_RLatLon0.09_PT080H.grib2 2026-05-09 03:04 355K
20260509T00Z_MSC_RDPS_RelativeHumidity_IsbL-0100_RLatLon0.09_PT080H.grib2 2026-05-09 03:04 273K
20260509T00Z_MSC_RDPS_RelativeHumidity_IsbL-0150_RLatLon0.09_PT080H.grib2 2026-05-09 03:04 410K
20260509T00Z_MSC_RDPS_RelativeHumidity_IsbL-0175_RLatLon0.09_PT080H.grib2 2026-05-09 03:04 468K
20260509T00Z_MSC_RDPS_RelativeHumidity_IsbL-0200_RLatLon0.09_PT080H.grib2 2026-05-09 03:04 541K
20260509T00Z_MSC_RDPS_RelativeHumidity_IsbL-0225_RLatLon0.09_PT080H.grib2 2026-05-09 03:04 616K
20260509T00Z_MSC_RDPS_RelativeHumidity_IsbL-0250_RLatLon0.09_PT080H.grib2 2026-05-09 03:04 694K
20260509T00Z_MSC_RDPS_RelativeHumidity_IsbL-0275_RLatLon0.09_PT080H.grib2 2026-05-09 03:04 723K
20260509T00Z_MSC_RDPS_RelativeHumidity_IsbL-0300_RLatLon0.09_PT080H.grib2 2026-05-09 03:04 770K
20260509T00Z_MSC_RDPS_RelativeHumidity_IsbL-0350_RLatLon0.09_PT080H.grib2 2026-05-09 03:04 788K
20260509T00Z_MSC_RDPS_RelativeHumidity_IsbL-0400_RLatLon0.09_PT080H.grib2 2026-05-09 03:04 810K
20260509T00Z_MSC_RDPS_RelativeHumidity_IsbL-0450_RLatLon0.09_PT080H.grib2 2026-05-09 03:04 820K
20260509T00Z_MSC_RDPS_RelativeHumidity_IsbL-0500_RLatLon0.09_PT080H.grib2 2026-05-09 03:04 820K
20260509T00Z_MSC_RDPS_RelativeHumidity_IsbL-0550_RLatLon0.09_PT080H.grib2 2026-05-09 03:04 839K
20260509T00Z_MSC_RDPS_RelativeHumidity_IsbL-0600_RLatLon0.09_PT080H.grib2 2026-05-09 03:04 862K
20260509T00Z_MSC_RDPS_RelativeHumidity_IsbL-0650_RLatLon0.09_PT080H.grib2 2026-05-09 03:04 875K
20260509T00Z_MSC_RDPS_RelativeHumidity_IsbL-0700_RLatLon0.09_PT080H.grib2 2026-05-09 03:04 900K
20260509T00Z_MSC_RDPS_RelativeHumidity_IsbL-0750_RLatLon0.09_PT080H.grib2 2026-05-09 03:04 943K
20260509T00Z_MSC_RDPS_RelativeHumidity_IsbL-0800_RLatLon0.09_PT080H.grib2 2026-05-09 03:04 1.0M
20260509T00Z_MSC_RDPS_RelativeHumidity_IsbL-0850_RLatLon0.09_PT080H.grib2 2026-05-09 03:04 1.0M
20260509T00Z_MSC_RDPS_RelativeHumidity_IsbL-0875_RLatLon0.09_PT080H.grib2 2026-05-09 03:04 1.1M
20260509T00Z_MSC_RDPS_RelativeHumidity_IsbL-0900_RLatLon0.09_PT080H.grib2 2026-05-09 03:04 1.1M
20260509T00Z_MSC_RDPS_RelativeHumidity_IsbL-0925_RLatLon0.09_PT080H.grib2 2026-05-09 03:04 1.1M
20260509T00Z_MSC_RDPS_RelativeHumidity_IsbL-0950_RLatLon0.09_PT080H.grib2 2026-05-09 03:04 1.1M
20260509T00Z_MSC_RDPS_RelativeHumidity_IsbL-0970_RLatLon0.09_PT080H.grib2 2026-05-09 03:04 1.1M
20260509T00Z_MSC_RDPS_RelativeHumidity_IsbL-0985_RLatLon0.09_PT080H.grib2 2026-05-09 03:04 1.0M
20260509T00Z_MSC_RDPS_RelativeHumidity_IsbL-1000_RLatLon0.09_PT080H.grib2 2026-05-09 03:04 1.0M
20260509T00Z_MSC_RDPS_RelativeHumidity_IsbL-1015_RLatLon0.09_PT080H.grib2 2026-05-09 03:04 1.0M
20260509T00Z_MSC_RDPS_Runoff-Accum_Sfc_RLatLon0.09_PT080H.grib2 2026-05-09 03:04 56K
20260509T00Z_MSC_RDPS_SWEATIndex_Sfc_RLatLon0.09_PT080H.grib2 2026-05-09 03:04 2.5M
20260509T00Z_MSC_RDPS_SeeingIndex_EAtm_RLatLon0.09_PT080H.grib2 2026-05-09 03:04 1.1M
20260509T00Z_MSC_RDPS_SensibleHeatNetFlux_Sfc_RLatLon0.09_PT080H.grib2 2026-05-09 03:04 287K
20260509T00Z_MSC_RDPS_ShowalterIndex_IsbL-0500_RLatLon0.09_PT080H.grib2 2026-05-09 03:04 2.6M
20260509T00Z_MSC_RDPS_SkyTransparencyIndex_EAtm_RLatLon0.09_PT080H.grib2 2026-05-09 03:04 705K
20260509T00Z_MSC_RDPS_Snow-Accum1h_Sfc_RLatLon0.09_PT080H.grib2 2026-05-09 03:04 446K
20260509T00Z_MSC_RDPS_Snow-Accum_Sfc_RLatLon0.09_PT080H.grib2 2026-05-09 03:04 687K
20260509T00Z_MSC_RDPS_SnowDensity_Sfc_RLatLon0.09_PT080H.grib2 2026-05-09 03:04 170K
20260509T00Z_MSC_RDPS_SnowDepth_Sfc_RLatLon0.09_PT080H.grib2 2026-05-09 03:04 610K
20260509T00Z_MSC_RDPS_SoilTemp_DBS-0to10cm_RLatLon0.09_PT080H.grib2 2026-05-09 03:04 244K
20260509T00Z_MSC_RDPS_SoilTemp_Sfc_RLatLon0.09_PT080H.grib2 2026-05-09 03:04 269K
20260509T00Z_MSC_RDPS_SoilVolumetricIceContent_Sfc_RLatLon0.09_PT080H.grib2 2026-05-09 03:04 139K
20260509T00Z_MSC_RDPS_SoilVolumetricWaterContent_DBS-0to10cm_RLatLon0.09_PT080H.grib2 2026-05-09 03:04 297K
20260509T00Z_MSC_RDPS_SoilVolumetricWaterContent_DBS-0to1cm_RLatLon0.09_PT080H.grib2 2026-05-09 03:04 349K
20260509T00Z_MSC_RDPS_SpecificHumidity_AGL-120m_RLatLon0.09_PT080H.grib2 2026-05-09 03:04 502K
20260509T00Z_MSC_RDPS_SpecificHumidity_AGL-2m_RLatLon0.09_PT080H.grib2 2026-05-09 03:04 671K
20260509T00Z_MSC_RDPS_SpecificHumidity_AGL-40m_RLatLon0.09_PT080H.grib2 2026-05-09 03:04 507K
20260509T00Z_MSC_RDPS_SpecificHumidity_AGL-80m_RLatLon0.09_PT080H.grib2 2026-05-09 03:04 503K
20260509T00Z_MSC_RDPS_SpecificHumidity_IsbL-0001_RLatLon0.09_PT080H.grib2 2026-05-09 03:04 353K
20260509T00Z_MSC_RDPS_SpecificHumidity_IsbL-0005_RLatLon0.09_PT080H.grib2 2026-05-09 03:04 359K
20260509T00Z_MSC_RDPS_SpecificHumidity_IsbL-0010_RLatLon0.09_PT080H.grib2 2026-05-09 03:04 383K
20260509T00Z_MSC_RDPS_SpecificHumidity_IsbL-0020_RLatLon0.09_PT080H.grib2 2026-05-09 03:04 478K
20260509T00Z_MSC_RDPS_SpecificHumidity_IsbL-0030_RLatLon0.09_PT080H.grib2 2026-05-09 03:04 357K
20260509T00Z_MSC_RDPS_SpecificHumidity_IsbL-0050_RLatLon0.09_PT080H.grib2 2026-05-09 03:04 468K
20260509T00Z_MSC_RDPS_SpecificHumidity_IsbL-0100_RLatLon0.09_PT080H.grib2 2026-05-09 03:04 399K
20260509T00Z_MSC_RDPS_SpecificHumidity_IsbL-0150_RLatLon0.09_PT080H.grib2 2026-05-09 03:04 456K
20260509T00Z_MSC_RDPS_SpecificHumidity_IsbL-0175_RLatLon0.09_PT080H.grib2 2026-05-09 03:04 433K
20260509T00Z_MSC_RDPS_SpecificHumidity_IsbL-0200_RLatLon0.09_PT080H.grib2 2026-05-09 03:04 468K
20260509T00Z_MSC_RDPS_SpecificHumidity_IsbL-0225_RLatLon0.09_PT080H.grib2 2026-05-09 03:04 473K
20260509T00Z_MSC_RDPS_SpecificHumidity_IsbL-0250_RLatLon0.09_PT080H.grib2 2026-05-09 03:04 523K
20260509T00Z_MSC_RDPS_SpecificHumidity_IsbL-0275_RLatLon0.09_PT080H.grib2 2026-05-09 03:04 485K
20260509T00Z_MSC_RDPS_SpecificHumidity_IsbL-0300_RLatLon0.09_PT080H.grib2 2026-05-09 03:04 462K
20260509T00Z_MSC_RDPS_SpecificHumidity_IsbL-0350_RLatLon0.09_PT080H.grib2 2026-05-09 03:04 457K
20260509T00Z_MSC_RDPS_SpecificHumidity_IsbL-0400_RLatLon0.09_PT080H.grib2 2026-05-09 03:04 546K
20260509T00Z_MSC_RDPS_SpecificHumidity_IsbL-0450_RLatLon0.09_PT080H.grib2 2026-05-09 03:04 602K
20260509T00Z_MSC_RDPS_SpecificHumidity_IsbL-0500_RLatLon0.09_PT080H.grib2 2026-05-09 03:04 535K
20260509T00Z_MSC_RDPS_SpecificHumidity_IsbL-0550_RLatLon0.09_PT080H.grib2 2026-05-09 03:04 608K
20260509T00Z_MSC_RDPS_SpecificHumidity_IsbL-0600_RLatLon0.09_PT080H.grib2 2026-05-09 03:04 665K
20260509T00Z_MSC_RDPS_SpecificHumidity_IsbL-0650_RLatLon0.09_PT080H.grib2 2026-05-09 03:04 581K
20260509T00Z_MSC_RDPS_SpecificHumidity_IsbL-0700_RLatLon0.09_PT080H.grib2 2026-05-09 03:04 627K
20260509T00Z_MSC_RDPS_SpecificHumidity_IsbL-0750_RLatLon0.09_PT080H.grib2 2026-05-09 03:04 683K
20260509T00Z_MSC_RDPS_SpecificHumidity_IsbL-0800_RLatLon0.09_PT080H.grib2 2026-05-09 03:04 768K
20260509T00Z_MSC_RDPS_SpecificHumidity_IsbL-0850_RLatLon0.09_PT080H.grib2 2026-05-09 03:04 825K
20260509T00Z_MSC_RDPS_SpecificHumidity_IsbL-0875_RLatLon0.09_PT080H.grib2 2026-05-09 03:04 842K
20260509T00Z_MSC_RDPS_SpecificHumidity_IsbL-0900_RLatLon0.09_PT080H.grib2 2026-05-09 03:04 852K
20260509T00Z_MSC_RDPS_SpecificHumidity_IsbL-0925_RLatLon0.09_PT080H.grib2 2026-05-09 03:04 855K
20260509T00Z_MSC_RDPS_SpecificHumidity_IsbL-0950_RLatLon0.09_PT080H.grib2 2026-05-09 03:04 716K
20260509T00Z_MSC_RDPS_SpecificHumidity_IsbL-0970_RLatLon0.09_PT080H.grib2 2026-05-09 03:04 713K
20260509T00Z_MSC_RDPS_SpecificHumidity_IsbL-0985_RLatLon0.09_PT080H.grib2 2026-05-09 03:04 705K
20260509T00Z_MSC_RDPS_SpecificHumidity_IsbL-1000_RLatLon0.09_PT080H.grib2 2026-05-09 03:04 695K
20260509T00Z_MSC_RDPS_SpecificHumidity_IsbL-1015_RLatLon0.09_PT080H.grib2 2026-05-09 03:04 685K
20260509T00Z_MSC_RDPS_SpecificHumidity_Sfc_RLatLon0.09_PT080H.grib2 2026-05-09 03:04 311K
20260509T00Z_MSC_RDPS_StormRelativeHelicity_EtaL-10000_RLatLon0.09_PT080H.grib2 2026-05-09 03:04 1.1M
20260509T00Z_MSC_RDPS_StormSeverityIndex_EtaL-10000_RLatLon0.09_PT080H.grib2 2026-05-09 03:04 1.2M
20260509T00Z_MSC_RDPS_Thickness_IsbL-0850to0700_RLatLon0.09_PT080H.grib2 2026-05-09 03:04 247K
20260509T00Z_MSC_RDPS_Thickness_IsbL-1000to0500_RLatLon0.09_PT080H.grib2 2026-05-09 03:04 193K
20260509T00Z_MSC_RDPS_Thickness_IsbL-1000to0850_RLatLon0.09_PT080H.grib2 2026-05-09 03:04 258K
20260509T00Z_MSC_RDPS_TotalCloudCover_Sfc_RLatLon0.09_PT080H.grib2 2026-05-09 03:04 677K
20260509T00Z_MSC_RDPS_TotalTotalsIndex_Sfc_RLatLon0.09_PT080H.grib2 2026-05-09 03:04 2.5M
20260509T00Z_MSC_RDPS_UVIndex-ClearSky_Sfc_RLatLon0.09_PT080H.grib2 2026-05-09 03:04 112K
20260509T00Z_MSC_RDPS_UVIndex_Sfc_RLatLon0.09_PT080H.grib2 2026-05-09 03:04 205K
20260509T00Z_MSC_RDPS_UpwardLongwaveRadiationFlux_NTAtm_RLatLon0.09_PT080H.grib2 2026-05-09 03:04 490K
20260509T00Z_MSC_RDPS_UpwardShortwaveRadiationFlux_NTAtm_RLatLon0.09_PT080H.grib2 2026-05-09 03:04 163K
20260509T00Z_MSC_RDPS_VerticalVelocity_IsbL-0250_RLatLon0.09_PT080H.grib2 2026-05-09 03:04 438K
20260509T00Z_MSC_RDPS_VerticalVelocity_IsbL-0500_RLatLon0.09_PT080H.grib2 2026-05-09 03:04 537K
20260509T00Z_MSC_RDPS_VerticalVelocity_IsbL-0700_RLatLon0.09_PT080H.grib2 2026-05-09 03:04 591K
20260509T00Z_MSC_RDPS_VerticalVelocity_IsbL-0850_RLatLon0.09_PT080H.grib2 2026-05-09 03:04 718K
20260509T00Z_MSC_RDPS_VerticalWindShear_EtaL-6500_RLatLon0.09_PT080H.grib2 2026-05-09 03:04 1.2M
20260509T00Z_MSC_RDPS_WindChill_Sfc_RLatLon0.09_PT080H.grib2 2026-05-09 03:04 1.2M
20260509T00Z_MSC_RDPS_WindDir_AGL-10m_RLatLon0.09_PT080H.grib2 2026-05-09 03:04 1.0M
20260509T00Z_MSC_RDPS_WindDir_AGL-120m_RLatLon0.09_PT080H.grib2 2026-05-09 03:04 617K
20260509T00Z_MSC_RDPS_WindDir_AGL-40m_RLatLon0.09_PT080H.grib2 2026-05-09 03:04 652K
20260509T00Z_MSC_RDPS_WindDir_AGL-80m_RLatLon0.09_PT080H.grib2 2026-05-09 03:04 630K
20260509T00Z_MSC_RDPS_WindDir_IsbL-0001_RLatLon0.09_PT080H.grib2 2026-05-09 03:04 274K
20260509T00Z_MSC_RDPS_WindDir_IsbL-0005_RLatLon0.09_PT080H.grib2 2026-05-09 03:04 375K
20260509T00Z_MSC_RDPS_WindDir_IsbL-0010_RLatLon0.09_PT080H.grib2 2026-05-09 03:04 395K
20260509T00Z_MSC_RDPS_WindDir_IsbL-0020_RLatLon0.09_PT080H.grib2 2026-05-09 03:04 436K
20260509T00Z_MSC_RDPS_WindDir_IsbL-0030_RLatLon0.09_PT080H.grib2 2026-05-09 03:04 441K
20260509T00Z_MSC_RDPS_WindDir_IsbL-0050_RLatLon0.09_PT080H.grib2 2026-05-09 03:04 451K
20260509T00Z_MSC_RDPS_WindDir_IsbL-0100_RLatLon0.09_PT080H.grib2 2026-05-09 03:04 428K
20260509T00Z_MSC_RDPS_WindDir_IsbL-0150_RLatLon0.09_PT080H.grib2 2026-05-09 03:04 425K
20260509T00Z_MSC_RDPS_WindDir_IsbL-0175_RLatLon0.09_PT080H.grib2 2026-05-09 03:04 444K
20260509T00Z_MSC_RDPS_WindDir_IsbL-0200_RLatLon0.09_PT080H.grib2 2026-05-09 03:04 455K
20260509T00Z_MSC_RDPS_WindDir_IsbL-0225_RLatLon0.09_PT080H.grib2 2026-05-09 03:04 460K
20260509T00Z_MSC_RDPS_WindDir_IsbL-0250_RLatLon0.09_PT080H.grib2 2026-05-09 03:04 460K
20260509T00Z_MSC_RDPS_WindDir_IsbL-0275_RLatLon0.09_PT080H.grib2 2026-05-09 03:04 480K
20260509T00Z_MSC_RDPS_WindDir_IsbL-0300_RLatLon0.09_PT080H.grib2 2026-05-09 03:04 476K
20260509T00Z_MSC_RDPS_WindDir_IsbL-0350_RLatLon0.09_PT080H.grib2 2026-05-09 03:04 509K
20260509T00Z_MSC_RDPS_WindDir_IsbL-0400_RLatLon0.09_PT080H.grib2 2026-05-09 03:04 528K
20260509T00Z_MSC_RDPS_WindDir_IsbL-0450_RLatLon0.09_PT080H.grib2 2026-05-09 03:04 548K
20260509T00Z_MSC_RDPS_WindDir_IsbL-0500_RLatLon0.09_PT080H.grib2 2026-05-09 03:04 564K
20260509T00Z_MSC_RDPS_WindDir_IsbL-0550_RLatLon0.09_PT080H.grib2 2026-05-09 03:04 570K
20260509T00Z_MSC_RDPS_WindDir_IsbL-0600_RLatLon0.09_PT080H.grib2 2026-05-09 03:04 590K
20260509T00Z_MSC_RDPS_WindDir_IsbL-0650_RLatLon0.09_PT080H.grib2 2026-05-09 03:04 625K
20260509T00Z_MSC_RDPS_WindDir_IsbL-0700_RLatLon0.09_PT080H.grib2 2026-05-09 03:04 665K
20260509T00Z_MSC_RDPS_WindDir_IsbL-0750_RLatLon0.09_PT080H.grib2 2026-05-09 03:04 716K
20260509T00Z_MSC_RDPS_WindDir_IsbL-0800_RLatLon0.09_PT080H.grib2 2026-05-09 03:04 791K
20260509T00Z_MSC_RDPS_WindDir_IsbL-0850_RLatLon0.09_PT080H.grib2 2026-05-09 03:04 862K
20260509T00Z_MSC_RDPS_WindDir_IsbL-0875_RLatLon0.09_PT080H.grib2 2026-05-09 03:04 888K
20260509T00Z_MSC_RDPS_WindDir_IsbL-0900_RLatLon0.09_PT080H.grib2 2026-05-09 03:04 910K
20260509T00Z_MSC_RDPS_WindDir_IsbL-0925_RLatLon0.09_PT080H.grib2 2026-05-09 03:04 926K
20260509T00Z_MSC_RDPS_WindDir_IsbL-0950_RLatLon0.09_PT080H.grib2 2026-05-09 03:04 929K
20260509T00Z_MSC_RDPS_WindDir_IsbL-0970_RLatLon0.09_PT080H.grib2 2026-05-09 03:04 933K
20260509T00Z_MSC_RDPS_WindDir_IsbL-0985_RLatLon0.09_PT080H.grib2 2026-05-09 03:04 944K
20260509T00Z_MSC_RDPS_WindDir_IsbL-1000_RLatLon0.09_PT080H.grib2 2026-05-09 03:04 963K
20260509T00Z_MSC_RDPS_WindDir_IsbL-1015_RLatLon0.09_PT080H.grib2 2026-05-09 03:04 1.0M
20260509T00Z_MSC_RDPS_WindGust-Max_AGL-10m_RLatLon0.09_PT080H.grib2 2026-05-09 03:04 1.0M
20260509T00Z_MSC_RDPS_WindGust-Min_AGL-10m_RLatLon0.09_PT080H.grib2 2026-05-09 03:04 972K
20260509T00Z_MSC_RDPS_WindGust_AGL-10m_RLatLon0.09_PT080H.grib2 2026-05-09 03:04 1.0M
20260509T00Z_MSC_RDPS_WindSpeed_AGL-10m_RLatLon0.09_PT080H.grib2 2026-05-09 03:04 1.0M
20260509T00Z_MSC_RDPS_WindSpeed_AGL-120m_RLatLon0.09_PT080H.grib2 2026-05-09 03:04 678K
20260509T00Z_MSC_RDPS_WindSpeed_AGL-40m_RLatLon0.09_PT080H.grib2 2026-05-09 03:04 681K
20260509T00Z_MSC_RDPS_WindSpeed_AGL-80m_RLatLon0.09_PT080H.grib2 2026-05-09 03:04 679K
20260509T00Z_MSC_RDPS_WindSpeed_IsbL-0001_RLatLon0.09_PT080H.grib2 2026-05-09 03:04 250K
20260509T00Z_MSC_RDPS_WindSpeed_IsbL-0005_RLatLon0.09_PT080H.grib2 2026-05-09 03:04 345K
20260509T00Z_MSC_RDPS_WindSpeed_IsbL-0010_RLatLon0.09_PT080H.grib2 2026-05-09 03:04 362K
20260509T00Z_MSC_RDPS_WindSpeed_IsbL-0020_RLatLon0.09_PT080H.grib2 2026-05-09 03:04 328K
20260509T00Z_MSC_RDPS_WindSpeed_IsbL-0030_RLatLon0.09_PT080H.grib2 2026-05-09 03:04 323K
20260509T00Z_MSC_RDPS_WindSpeed_IsbL-0050_RLatLon0.09_PT080H.grib2 2026-05-09 03:04 447K
20260509T00Z_MSC_RDPS_WindSpeed_IsbL-0100_RLatLon0.09_PT080H.grib2 2026-05-09 03:04 466K
20260509T00Z_MSC_RDPS_WindSpeed_IsbL-0150_RLatLon0.09_PT080H.grib2 2026-05-09 03:04 366K
20260509T00Z_MSC_RDPS_WindSpeed_IsbL-0175_RLatLon0.09_PT080H.grib2 2026-05-09 03:04 391K
20260509T00Z_MSC_RDPS_WindSpeed_IsbL-0200_RLatLon0.09_PT080H.grib2 2026-05-09 03:04 430K
20260509T00Z_MSC_RDPS_WindSpeed_IsbL-0225_RLatLon0.09_PT080H.grib2 2026-05-09 03:04 439K
20260509T00Z_MSC_RDPS_WindSpeed_IsbL-0250_RLatLon0.09_PT080H.grib2 2026-05-09 03:04 444K
20260509T00Z_MSC_RDPS_WindSpeed_IsbL-0275_RLatLon0.09_PT080H.grib2 2026-05-09 03:04 465K
20260509T00Z_MSC_RDPS_WindSpeed_IsbL-0300_RLatLon0.09_PT080H.grib2 2026-05-09 03:04 463K
20260509T00Z_MSC_RDPS_WindSpeed_IsbL-0350_RLatLon0.09_PT080H.grib2 2026-05-09 03:04 472K
20260509T00Z_MSC_RDPS_WindSpeed_IsbL-0400_RLatLon0.09_PT080H.grib2 2026-05-09 03:04 456K
20260509T00Z_MSC_RDPS_WindSpeed_IsbL-0450_RLatLon0.09_PT080H.grib2 2026-05-09 03:04 459K
20260509T00Z_MSC_RDPS_WindSpeed_IsbL-0500_RLatLon0.09_PT080H.grib2 2026-05-09 03:04 461K
20260509T00Z_MSC_RDPS_WindSpeed_IsbL-0550_RLatLon0.09_PT080H.grib2 2026-05-09 03:04 582K
20260509T00Z_MSC_RDPS_WindSpeed_IsbL-0600_RLatLon0.09_PT080H.grib2 2026-05-09 03:04 591K
20260509T00Z_MSC_RDPS_WindSpeed_IsbL-0650_RLatLon0.09_PT080H.grib2 2026-05-09 03:04 611K
20260509T00Z_MSC_RDPS_WindSpeed_IsbL-0700_RLatLon0.09_PT080H.grib2 2026-05-09 03:04 681K
20260509T00Z_MSC_RDPS_WindSpeed_IsbL-0750_RLatLon0.09_PT080H.grib2 2026-05-09 03:04 714K
20260509T00Z_MSC_RDPS_WindSpeed_IsbL-0800_RLatLon0.09_PT080H.grib2 2026-05-09 03:04 770K
20260509T00Z_MSC_RDPS_WindSpeed_IsbL-0850_RLatLon0.09_PT080H.grib2 2026-05-09 03:04 825K
20260509T00Z_MSC_RDPS_WindSpeed_IsbL-0875_RLatLon0.09_PT080H.grib2 2026-05-09 03:04 844K
20260509T00Z_MSC_RDPS_WindSpeed_IsbL-0900_RLatLon0.09_PT080H.grib2 2026-05-09 03:04 854K
20260509T00Z_MSC_RDPS_WindSpeed_IsbL-0925_RLatLon0.09_PT080H.grib2 2026-05-09 03:04 870K
20260509T00Z_MSC_RDPS_WindSpeed_IsbL-0950_RLatLon0.09_PT080H.grib2 2026-05-09 03:04 872K
20260509T00Z_MSC_RDPS_WindSpeed_IsbL-0970_RLatLon0.09_PT080H.grib2 2026-05-09 03:04 871K
20260509T00Z_MSC_RDPS_WindSpeed_IsbL-0985_RLatLon0.09_PT080H.grib2 2026-05-09 03:04 866K
20260509T00Z_MSC_RDPS_WindSpeed_IsbL-1000_RLatLon0.09_PT080H.grib2 2026-05-09 03:04 859K
20260509T00Z_MSC_RDPS_WindSpeed_IsbL-1015_RLatLon0.09_PT080H.grib2 2026-05-09 03:04 1.0M
20260509T00Z_MSC_RDPS_WindU_AGL-10m_RLatLon0.09_PT080H.grib2 2026-05-09 03:04 435K
20260509T00Z_MSC_RDPS_WindU_AGL-120m_RLatLon0.09_PT080H.grib2 2026-05-09 03:04 541K
20260509T00Z_MSC_RDPS_WindU_AGL-40m_RLatLon0.09_PT080H.grib2 2026-05-09 03:04 544K
20260509T00Z_MSC_RDPS_WindU_AGL-80m_RLatLon0.09_PT080H.grib2 2026-05-09 03:04 543K
20260509T00Z_MSC_RDPS_WindU_IsbL-0001_RLatLon0.09_PT080H.grib2 2026-05-09 03:04 289K
20260509T00Z_MSC_RDPS_WindU_IsbL-0005_RLatLon0.09_PT080H.grib2 2026-05-09 03:04 284K
20260509T00Z_MSC_RDPS_WindU_IsbL-0010_RLatLon0.09_PT080H.grib2 2026-05-09 03:04 387K
20260509T00Z_MSC_RDPS_WindU_IsbL-0020_RLatLon0.09_PT080H.grib2 2026-05-09 03:04 355K
20260509T00Z_MSC_RDPS_WindU_IsbL-0030_RLatLon0.09_PT080H.grib2 2026-05-09 03:04 353K
20260509T00Z_MSC_RDPS_WindU_IsbL-0050_RLatLon0.09_PT080H.grib2 2026-05-09 03:04 340K
20260509T00Z_MSC_RDPS_WindU_IsbL-0100_RLatLon0.09_PT080H.grib2 2026-05-09 03:04 461K
20260509T00Z_MSC_RDPS_WindU_IsbL-0150_RLatLon0.09_PT080H.grib2 2026-05-09 03:04 385K
20260509T00Z_MSC_RDPS_WindU_IsbL-0175_RLatLon0.09_PT080H.grib2 2026-05-09 03:04 408K
20260509T00Z_MSC_RDPS_WindU_IsbL-0200_RLatLon0.09_PT080H.grib2 2026-05-09 03:04 424K
20260509T00Z_MSC_RDPS_WindU_IsbL-0225_RLatLon0.09_PT080H.grib2 2026-05-09 03:04 432K
20260509T00Z_MSC_RDPS_WindU_IsbL-0250_RLatLon0.09_PT080H.grib2 2026-05-09 03:04 435K
20260509T00Z_MSC_RDPS_WindU_IsbL-0275_RLatLon0.09_PT080H.grib2 2026-05-09 03:04 353K
20260509T00Z_MSC_RDPS_WindU_IsbL-0300_RLatLon0.09_PT080H.grib2 2026-05-09 03:04 349K
20260509T00Z_MSC_RDPS_WindU_IsbL-0350_RLatLon0.09_PT080H.grib2 2026-05-09 03:04 357K
20260509T00Z_MSC_RDPS_WindU_IsbL-0400_RLatLon0.09_PT080H.grib2 2026-05-09 03:04 460K
20260509T00Z_MSC_RDPS_WindU_IsbL-0450_RLatLon0.09_PT080H.grib2 2026-05-09 03:04 464K
20260509T00Z_MSC_RDPS_WindU_IsbL-0500_RLatLon0.09_PT080H.grib2 2026-05-09 03:04 467K
20260509T00Z_MSC_RDPS_WindU_IsbL-0550_RLatLon0.09_PT080H.grib2 2026-05-09 03:04 469K
20260509T00Z_MSC_RDPS_WindU_IsbL-0600_RLatLon0.09_PT080H.grib2 2026-05-09 03:04 478K
20260509T00Z_MSC_RDPS_WindU_IsbL-0650_RLatLon0.09_PT080H.grib2 2026-05-09 03:04 495K
20260509T00Z_MSC_RDPS_WindU_IsbL-0700_RLatLon0.09_PT080H.grib2 2026-05-09 03:04 504K
20260509T00Z_MSC_RDPS_WindU_IsbL-0750_RLatLon0.09_PT080H.grib2 2026-05-09 03:04 534K
20260509T00Z_MSC_RDPS_WindU_IsbL-0800_RLatLon0.09_PT080H.grib2 2026-05-09 03:04 582K
20260509T00Z_MSC_RDPS_WindU_IsbL-0850_RLatLon0.09_PT080H.grib2 2026-05-09 03:04 630K
20260509T00Z_MSC_RDPS_WindU_IsbL-0875_RLatLon0.09_PT080H.grib2 2026-05-09 03:04 647K
20260509T00Z_MSC_RDPS_WindU_IsbL-0900_RLatLon0.09_PT080H.grib2 2026-05-09 03:04 659K
20260509T00Z_MSC_RDPS_WindU_IsbL-0925_RLatLon0.09_PT080H.grib2 2026-05-09 03:04 809K
20260509T00Z_MSC_RDPS_WindU_IsbL-0950_RLatLon0.09_PT080H.grib2 2026-05-09 03:04 809K
20260509T00Z_MSC_RDPS_WindU_IsbL-0970_RLatLon0.09_PT080H.grib2 2026-05-09 03:04 805K
20260509T00Z_MSC_RDPS_WindU_IsbL-0985_RLatLon0.09_PT080H.grib2 2026-05-09 03:04 799K
20260509T00Z_MSC_RDPS_WindU_IsbL-1000_RLatLon0.09_PT080H.grib2 2026-05-09 03:04 839K
20260509T00Z_MSC_RDPS_WindU_IsbL-1015_RLatLon0.09_PT080H.grib2 2026-05-09 03:04 833K
20260509T00Z_MSC_RDPS_WindV_AGL-10m_RLatLon0.09_PT080H.grib2 2026-05-09 03:04 435K
20260509T00Z_MSC_RDPS_WindV_AGL-120m_RLatLon0.09_PT080H.grib2 2026-05-09 03:04 542K
20260509T00Z_MSC_RDPS_WindV_AGL-40m_RLatLon0.09_PT080H.grib2 2026-05-09 03:04 545K
20260509T00Z_MSC_RDPS_WindV_AGL-80m_RLatLon0.09_PT080H.grib2 2026-05-09 03:04 543K
20260509T00Z_MSC_RDPS_WindV_IsbL-0001_RLatLon0.09_PT080H.grib2 2026-05-09 03:04 244K
20260509T00Z_MSC_RDPS_WindV_IsbL-0005_RLatLon0.09_PT080H.grib2 2026-05-09 03:04 373K
20260509T00Z_MSC_RDPS_WindV_IsbL-0010_RLatLon0.09_PT080H.grib2 2026-05-09 03:04 389K
20260509T00Z_MSC_RDPS_WindV_IsbL-0020_RLatLon0.09_PT080H.grib2 2026-05-09 03:04 359K
20260509T00Z_MSC_RDPS_WindV_IsbL-0030_RLatLon0.09_PT080H.grib2 2026-05-09 03:04 317K
20260509T00Z_MSC_RDPS_WindV_IsbL-0050_RLatLon0.09_PT080H.grib2 2026-05-09 03:04 339K
20260509T00Z_MSC_RDPS_WindV_IsbL-0100_RLatLon0.09_PT080H.grib2 2026-05-09 03:04 417K
20260509T00Z_MSC_RDPS_WindV_IsbL-0150_RLatLon0.09_PT080H.grib2 2026-05-09 03:04 358K
20260509T00Z_MSC_RDPS_WindV_IsbL-0175_RLatLon0.09_PT080H.grib2 2026-05-09 03:04 405K
20260509T00Z_MSC_RDPS_WindV_IsbL-0200_RLatLon0.09_PT080H.grib2 2026-05-09 03:04 421K
20260509T00Z_MSC_RDPS_WindV_IsbL-0225_RLatLon0.09_PT080H.grib2 2026-05-09 03:04 333K
20260509T00Z_MSC_RDPS_WindV_IsbL-0250_RLatLon0.09_PT080H.grib2 2026-05-09 03:04 335K
20260509T00Z_MSC_RDPS_WindV_IsbL-0275_RLatLon0.09_PT080H.grib2 2026-05-09 03:04 352K
20260509T00Z_MSC_RDPS_WindV_IsbL-0300_RLatLon0.09_PT080H.grib2 2026-05-09 03:04 348K
20260509T00Z_MSC_RDPS_WindV_IsbL-0350_RLatLon0.09_PT080H.grib2 2026-05-09 03:04 356K
20260509T00Z_MSC_RDPS_WindV_IsbL-0400_RLatLon0.09_PT080H.grib2 2026-05-09 03:04 358K
20260509T00Z_MSC_RDPS_WindV_IsbL-0450_RLatLon0.09_PT080H.grib2 2026-05-09 03:04 462K
20260509T00Z_MSC_RDPS_WindV_IsbL-0500_RLatLon0.09_PT080H.grib2 2026-05-09 03:04 466K
20260509T00Z_MSC_RDPS_WindV_IsbL-0550_RLatLon0.09_PT080H.grib2 2026-05-09 03:04 467K
20260509T00Z_MSC_RDPS_WindV_IsbL-0600_RLatLon0.09_PT080H.grib2 2026-05-09 03:04 475K
20260509T00Z_MSC_RDPS_WindV_IsbL-0650_RLatLon0.09_PT080H.grib2 2026-05-09 03:04 492K
20260509T00Z_MSC_RDPS_WindV_IsbL-0700_RLatLon0.09_PT080H.grib2 2026-05-09 03:04 500K
20260509T00Z_MSC_RDPS_WindV_IsbL-0750_RLatLon0.09_PT080H.grib2 2026-05-09 03:04 529K
20260509T00Z_MSC_RDPS_WindV_IsbL-0800_RLatLon0.09_PT080H.grib2 2026-05-09 03:04 578K
20260509T00Z_MSC_RDPS_WindV_IsbL-0850_RLatLon0.09_PT080H.grib2 2026-05-09 03:04 762K
20260509T00Z_MSC_RDPS_WindV_IsbL-0875_RLatLon0.09_PT080H.grib2 2026-05-09 03:04 781K
20260509T00Z_MSC_RDPS_WindV_IsbL-0900_RLatLon0.09_PT080H.grib2 2026-05-09 03:04 794K
20260509T00Z_MSC_RDPS_WindV_IsbL-0925_RLatLon0.09_PT080H.grib2 2026-05-09 03:04 807K
20260509T00Z_MSC_RDPS_WindV_IsbL-0950_RLatLon0.09_PT080H.grib2 2026-05-09 03:04 807K
20260509T00Z_MSC_RDPS_WindV_IsbL-0970_RLatLon0.09_PT080H.grib2 2026-05-09 03:04 805K
20260509T00Z_MSC_RDPS_WindV_IsbL-0985_RLatLon0.09_PT080H.grib2 2026-05-09 03:04 800K
20260509T00Z_MSC_RDPS_WindV_IsbL-1000_RLatLon0.09_PT080H.grib2 2026-05-09 03:04 841K
20260509T00Z_MSC_RDPS_WindV_IsbL-1015_RLatLon0.09_PT080H.grib2 2026-05-09 03:04 834K